Location: Unspecified
(43.4680°N, 87.1740°E)
Time: 13:00:22
(UTC+00:00)

Okean 2 - Pass Details

Date: 03 August 2021
Orbit: 558 x 577 km, 82.5° (Epoch: 18 September)

Event Time Altitude Azimuth Distance (km) Brightness Sun altitude
Rises 18:47:06 0° 2° (N) 2,802 8.2 -28.9°
Reaches altitude 10° 18:49:35 10° 15° (NNE) 1,897 7.0 -28.8°
Enters shadow 18:52:40 26° 61° (ENE) 1,150 5.2 -28.7°
